This is the latest recevied weather packets stored in our database for station/object WC4PEM-1. If no packets are shown the sender has not sent any weather packets the latest 10 day(s).
| Time | Temp. | Humidity | Pressure | Rain* | Wind** | Luminosity | Snow |
|---|---|---|---|---|---|---|---|
| 1777226328 | 30.56° C | 49% | 1010 hPa | 0 mm | - | 271 W/m² | - |
| 1777226028 | 30.56° C | 51% | 1009.8 hPa | 0 mm | - | 1183 W/m² | - |
| 1777225728 | 30° C | 52% | 1009.9 hPa | 0 mm | - | 301 W/m² | - |
| 1777225128 | 31.11° C | 51% | 1009.9 hPa | 0 mm | - | 1171 W/m² | - |
| 1777224828 | 31.11° C | 52% | 1010 hPa | 0 mm | - | 1137 W/m² | - |
| 1777224528 | 31.11° C | 52% | 1010.1 hPa | 0 mm | - | 1076 W/m² | - |
| 1777224228 | 30.56° C | 52% | 1010.1 hPa | 0 mm | - | 267 W/m² | - |
| 1777223928 | 30.56° C | 54% | 1010.2 hPa | 0 mm | - | 1136 W/m² | - |
| 1777223629 | 30° C | 55% | 1010.3 hPa | 0 mm | - | 1086 W/m² | - |
| 1777223328 | 30° C | 55% | 1010.3 hPa | 0 mm | - | 958 W/m² | - |
| 1777222728 | 29.44° C | 58% | 1010.4 hPa | 0 mm | - | 1155 W/m² | - |
| 1777222428 | 28.33° C | 59% | 1010.5 hPa | 0 mm | - | 1151 W/m² | - |
| 1777222128 | 28.89° C | 60% | 1010.6 hPa | 0 mm | - | 241 W/m² | - |
| 1777221828 | 28.89° C | 59% | 1010.7 hPa | 0 mm | - | 1111 W/m² | - |
| 1777221528 | 29.44° C | 58% | 1010.7 hPa | 0 mm | - | 1018 W/m² | - |
| 1777221228 | 29.44° C | 59% | 1010.8 hPa | 0 mm | - | 991 W/m² | - |
| 1777220928 | 29.44° C | 61% | 1010.9 hPa | 0 mm | - | 1062 W/m² | - |
| 1777220628 | 28.89° C | 59% | 1010.9 hPa | 0 mm | - | 1021 W/m² | - |
| 1777220028 | 28.33° C | 62% | 1011.1 hPa | 0 mm | - | 954 W/m² | - |
| 1777219728 | 27.78° C | 65% | 1011.1 hPa | 0 mm | - | 898 W/m² | - |
| 1777219428 | 27.78° C | 66% | 1011.1 hPa | 0 mm | - | 900 W/m² | - |
| 1777219128 | 27.22° C | 66% | 1011.3 hPa | 0 mm | - | 935 W/m² | - |
| 1777218828 | 27.78° C | 66% | 1011.2 hPa | 0 mm | - | 1011 W/m² | - |
| 1777218528 | 27.22° C | 67% | 1011.3 hPa | 0 mm | - | 912 W/m² | - |
| 1777218228 | 26.67° C | 68% | 1011.2 hPa | 0 mm | - | 874 W/m² | - |
* Rain latest hour (hover to see other rain measurements)
** Current wind speed in m/s (hover to see current wind gust speed)